Flag for Cayman Islands Weather past 2 weeks in George Town, Cayman Islands

Now
84 °F

Scattered clouds.


Feels Like: 92 °F
Forecast: 78 / 81 °F
Wind: 12 mph from East

Location: Owen Roberts Airportgrand Cayman

Current Time: Dec 28, 2014 at 3:20:13 PM

Latest Report: Dec 28, 2014 at 3:00 PM


Visibility: N/A

Pressure: 29.98 "Hg

Humidity: 74%

Dew point: 75 °F

Location of George TownLocation

Historic Weather in George Town — Graph

°F

George Town temperature yesterday

Maximum temperature yesterday: 82 °F (at 11:00 AM)
Minimum temperature yesterday: 77 °F (at 6:15 AM)
Average temperature yesterday: 80 °F

Past Weeks' High & Low Weather Summary

 TemperatureHumidityPressure
High86 °F (Dec 23, 12:00 PM)100% (Dec 21, 7:00 AM)30.09 "Hg (Dec 21, 7:00 AM)
Low73 °F (Dec 13, 6:00 PM)61% (Dec 14, 10:50 AM)29.83 "Hg (Dec 23, 3:00 PM)
Average80 °F81%29.98 "Hg
* Reported Dec 13 2:00 PM — Dec 28 2:00 PM, George Town, Weather by CustomWeather, © 2014

Note: Actual official high and low records may vary slightly from our data, if they occured in-between our weather recording intervals... More about our weather records

Advertising

George Town weather history for previous 24 hours

 ConditionsComfort  
Time TempWeatherWind HumidityBarometerVisibility
2:00 PM
Dec 28
84 °FScattered clouds.12 mph74%30.01 "HgN/A
1:00 PM81 °FPartly sunny.8 mph89%30.01 "HgN/A
12:00 PM82 °FPartly sunny.10 mph84%30.04 "HgN/A
11:00 AM82 °FScattered clouds.13 mph84%30.07 "HgN/A
10:00 AM82 °FScattered clouds.9 mph84%30.07 "HgN/A
9:00 AM81 °FPassing clouds.10 mph89%30.07 "HgN/A
8:00 AM79 °FPassing clouds.6 mph89%30.04 "HgN/A
7:00 AM77 °FPassing clouds.5 mph94%30.01 "HgN/A
6:00 AM77 °FPassing clouds.7 mph94%30.01 "HgN/A
10:00 PM
Dec 27
79 °FPassing clouds.7 mph89%30.07 "HgN/A
9:00 PM79 °FPassing clouds.7 mph89%30.07 "HgN/A
8:00 PM79 °FPassing clouds.8 mph89%30.04 "HgN/A
7:00 PM79 °FPassing clouds.9 mph89%30.04 "HgN/A
6:00 PM81 °FPartly cloudy.13 mph84%30.01 "HgN/A
5:00 PM81 °FPartly sunny.14 mph84%30.01 "HgN/A
4:00 PM82 °FPartly sunny.13 mph79%29.98 "HgN/A
3:00 PM82 °FPassing clouds.14 mph79%30.01 "HgN/A
Weather by CustomWeather, © 2014

See weather overviewHow to use our weather pages